Temp
11 11 10 10 10 10 10 10 10 10 10 10 10 10 10 10 10 9 9 9 9 9 9 9 9 9 9 9 9 9 9 9 9 9 9 9 8 9 9 9 9 9 9 8 8 8 8 8 8 8 7 7 7 7 6 6 6 6 6 6 6 6 6 6 6 5 5 5 5 5 5 5 5 5 5 5 6 6 6 6 6 6 6 6 6
11 11 10 10 10 10 10 10 10 10 10 10 10 10 10 10 10 10 9 9 9 9 9 9 9 9 9 9 9 9 9 9 9 9 8 8 8 8 8 9 9 9 8 8 8 8 8 8 8 7 7 7 7 6 6 6 6 6 6 6 6 5 5 5 5 5 5 5 5 5 5 5 5 5 5 5 5 6 6 6 6 6 6 6 6
11 11 11 10 10 10 10 10 10 10 10 10 10 10 10 10 10 10 9 9 9 9 9 9 9 9 9 9 9 9 9 9 8 8 8 8 8 8 8 8 9 9 8 8 8 8 8 8 8 7 7 7 6 6 6 6 6 6 6 5 5 5 5 5 5 5 5 5 5 5 5 5 5 5 5 5 5 6 6 6 6 6 6 6 6
11 11 10 10 10 10 10 10 10 10 10 10 10 10 10 10 10 10 9 9 9 9 9 9 9 9 9 9 9 9 9 8 8 8 8 8 8 8 8 8 8 8 8 8 8 8 8 7 7 7 7 6 6 6 6 6 6 6 5 5 5 5 5 5 5 5 5 5 5 5 5 5 5 5 5 5 5 5 6 6 6 6 6 6 6
11 11 10 10 10 10 10 10 10 10 10 10 10 10 10 10 10 10 9 9 9 9 9 9 9 9 9 9 9 9 8 8 8 8 8 8 8 8 8 8 8 8 8 8 8 8 8 7 7 7 6 6 6 6 6 6 5 5 5 5 5 5 5 5 5 5 5 5 5 5 5 5 5 5 5 5 5 5 5 5 5 6 6 6 6
11 11 10 10 10 10 10 10 10 10 10 10 10 10 10 10 10 9 9 9 9 9 9 9 9 9 9 9 9 9 8 8 8 8 8 8 8 8 8 8 8 8 8 8 8 8 7 7 7 7 6 6 6 6 6 5 5 5 5 5 5 5 5 5 5 5 5 5 5 5 5 5 5 5 5 5 5 5 5 5 5 5 5 5 6
11 11 10 10 10 10 10 10 10 10 10 10 10 10 10 10 10 9 9 9 9 9 9 9 9 9 9 9 9 8 8 8 8 8 8 8 8 8 8 8 8 8 8 8 8 7 7 7 7 6 6 6 6 6 5 5 5 5 5 5 5 5 5 5 5 5 5 5 5 5 5 5 5 5 5 5 5 5 5 5 5 5 5 5 5
11 11 11 10 10 10 10 10 10 10 10 10 10 10 10 10 10 9 9 9 9 9 9 9 9 9 9 9 9 8 8 8 8 8 8 8 8 8 8 8 8 8 8 8 8 7 7 7 7 6 6 6 6 6 5 5 5 5 5 5 5 5 5 5 5 5 5 5 5 5 5 5 5 5 5 5 5 5 5 5 5 5 5 5 5
11 11 11 11 10 10 10 10 10 10 10 10 10 10 10 10 10 9 9 9 9 9 9 9 9 9 9 9 8 8 8 8 8 8 8 8 8 8 7 7 8 8 8 8 8 7 7 7 6 6 6 6 6 5 5 5 5 5 5 5 5 5 5 5 5 5 5 5 5 5 5 5 5 5 5 5 5 5 5 5 5 5 5 5 5
11 11 11 11 10 10 10 10 10 10 10 10 10 10 10 9 10 9 9 9 9 9 9 9 9 9 9 9 8 8 8 8 8 8 8 8 7 7 7 7 7 8 8 8 7 7 7 6 6 6 6 6 5 5 5 5 5 5 5 5 5 5 5 5 5 5 5 5 5 5 5 5 5 5 5 5 5 5 5 5 5 5 5 5 5
11 11 11 11 10 10 10 10 10 10 10 10 9 9 9 9 9 9 9 9 9 9 9 9 9 9 9 9 8 8 8 8 8 8 8 7 7 7 7 7 7 7 8 8 7 7 7 6 6 6 6 6 5 5 5 5 5 5 5 5 5 5 5 5 5 5 5 5 5 5 5 5 5 5 5 5 5 5 5 5 5 5 5 5 5
11 11 11 10 10 10 10 10 10 10 10 9 9 9 9 9 9 9 9 9 9 9 9 9 9 9 8 8 8 8 8 8 8 8 7 7 7 7 7 7 7 7 7 7 7 7 7 6 6 6 6 6 5 5 5 5 5 5 5 5 5 5 5 5 5 5 5 5 5 5 5 5 5 5 5 5 5 5 5 5 5 5 5 5 5
11 11 11 10 10 10 10 10 10 10 9 9 9 9 9 9 9 9 9 9 9 9 9 9 8 8 8 8 8 8 8 8 8 7 7 7 7 7 7 7 7 7 7 7 7 7 7 6 6 6 6 6 5 5 5 5 5 5 5 5 5 5 5 5 5 5 5 5 5 5 5 5 5 5 5 5 5 5 5 5 5 5 5 5 5
11 11 11 10 10 10 10 10 10 10 9 9 9 9 9 9 9 9 9 9 9 9 9 8 8 8 8 8 8 8 8 8 7 7 7 7 7 7 7 7 7 7 7 7 7 7 7 6 6 6 6 5 5 5 5 5 5 5 5 5 5 5 5 5 5 5 5 5 5 5 5 5 5 5 5 5 5 5 5 5 5 5 5 5 5
11 11 11 10 10 10 10 10 9 9 9 9 9 9 9 9 9 9 9 9 9 9 9 8 8 8 8 8 8 8 8 8 7 7 7 7 7 7 7 6 6 6 7 7 7 7 7 6 6 6 6 5 5 5 5 5 5 5 5 5 5 5 5 5 5 5 5 5 5 5 5 5 5 5 5 5 5 5 5 5 5 5 5 5 5
11 11 11 10 10 10 10 9 9 9 9 9 9 9 9 9 9 9 9 9 9 9 8 8 8 8 8 8 8 8 8 7 7 7 7 7 7 7 7 6 6 6 6 6 6 6 6 6 6 6 6 6 6 5 5 5 5 5 5 5 5 5 5 5 5 5 5 5 5 5 5 5 5 5 5 5 5 5 5 5 5 5 5 5 5
11 11 11 10 10 10 10 9 9 8 8 8 8 9 9 9 9 9 9 9 9 8 8 8 8 8 8 8 8 8 8 7 7 7 7 7 7 7 7 6 6 6 6 6 6 6 6 6 6 6 6 6 6 5 5 5 5 5 5 5 5 5 5 5 5 5 5 5 5 5 5 4 5 5 5 5 5 5 5 5 5 5 5 5 5
12 11 11 10 10 10 10 9 8 8 8 8 8 8 9 9 9 9 9 8 8 8 8 8 8 8 8 8 8 8 7 7 7 7 7 7 7 7 6 6 6 6 6 6 6 6 6 6 6 6 6 6 5 5 5 5 5 5 5 5 5 5 5 5 5 5 5 5 5 5 5 5 5 5 5 5 5 5 5 5 5 5 5 5 5
12 11 10 10 10 10 9 8 8 8 8 8 8 8 8 9 9 9 8 8 8 8 8 8 8 8 8 8 8 8 7 7 7 7 7 7 7 6 6 6 6 6 6 6 6 6 6 5 5 5 5 5 5 5 5 5 5 5 5 5 5 5 5 5 5 5 5 5 5 5 5 5 5 5 5 5 5 5 5 5 5 5 5 4 4
11 11 10 10 10 10 9 8 8 7 7 8 8 8 8 8 8 8 8 8 8 8 8 8 8 8 8 8 8 8 7 7 7 7 7 7 6 6 6 6 6 6 6 6 6 6 5 5 5 5 5 5 5 5 5 5 5 5 5 5 5 5 5 5 5 5 4 4 5 5 5 5 5 5 5 5 5 4 4 5 5 4 4 4 4
11 10 10 10 10 10 9 8 8 7 7 7 8 8 8 8 8 8 8 8 8 8 8 8 8 8 8 7 7 7 7 7 7 7 7 6 6 6 6 6 6 6 6 6 6 6 6 6 6 6 5 5 5 5 5 5 5 5 5 5 5 5 5 5 5 5 4 4 5 5 5 5 5 5 4 4 4 4 4 4 5 5 4 4 4
10 10 9 9 10 9 9 8 8 8 7 7 8 8 8 8 8 8 8 8 8 8 8 7 7 7 7 7 7 7 7 7 7 7 6 6 6 6 6 6 6 6 6 6 6 6 6 6 6 6 6 6 5 5 5 6 6 5 5 5 5 5 5 5 5 5 4 4 5 5 5 5 5 4 4 4 5 4 4 4 5 5 4 4 4
9 9 9 9 9 9 8 8 8 8 8 7 8 8 8 8 8 8 8 8 8 8 8 7 7 7 7 7 7 7 7 7 7 6 6 6 6 6 6 6 6 6 6 6 6 6 6 6 6 6 6 6 6 5 5 5 5 5 5 5 5 5 5 5 5 5 4 5 5 5 5 5 4 4 4 5 5 5 5 4 4 5 4 4 4
9 10 10 9 9 9 8 8 8 8 8 8 8 8 8 8 8 8 8 8 8 7 7 7 7 7 7 7 7 7 7 7 7 6 6 6 6 6 6 6 6 6 6 6 6 6 6 6 6 6 6 6 5 5 5 5 5 5 5 5 5 5 5 5 5 4 4 5 5 5 5 5 4 4 4 5 5 5 5 4 4 4 4 4 4
10 10 9 9 9 9 8 8 8 8 8 8 8 8 8 8 8 7 7 7 7 7 7 7 7 7 7 7 7 7 7 7 6 6 6 6 6 6 6 6 6 6 6 6 6 6 6 5 5 5 5 5 5 5 5 5 5 5 5 5 5 5 5 5 5 5 5 5 5 5 5 5 5 4 5 5 5 5 5 5 4 4 4 4 4
10 10 9 9 9 8 8 8 8 8 8 8 8 8 8 8 7 7 7 7 7 7 7 7 7 7 7 7 7 7 7 7 6 6 6 6 6 6 6 5 6 6 6 6 5 5 5 5 5 5 5 5 5 5 5 5 5 5 5 5 5 5 5 5 5 5 5 5 5 5 5 5 5 5 5 5 5 5 5 5 4 4 4 4 4
10 9 9 9 9 8 8 8 8 8 8 8 8 8 8 8 7 7 7 7 7 7 7 7 7 7 7 7 7 7 7 6 6 6 6 6 6 6 5 5 5 6 6 5 5 5 5 5 5 5 5 5 5 5 5 5 5 5 5 5 5 5 5 5 5 5 5 5 5 5 5 5 5 5 5 5 5 4 4 4 4 4 4 4 4
10 9 9 9 9 9 8 8 8 8 8 8 7 7 8 7 7 7 7 7 7 7 7 7 7 7 7 7 7 7 7 6 6 6 6 6 6 6 6 5 5 5 5 5 5 5 5 5 5 5 5 5 5 5 5 5 5 5 5 5 5 5 5 5 5 5 5 5 5 5 5 5 5 5 5 5 4 4 4 4 4 4 4 4 4
10 9 9 9 9 9 9 9 8 8 8 8 7 7 7 7 7 7 7 7 7 7 6 6 6 7 7 7 7 7 6 6 6 6 6 6 6 6 6 5 5 5 5 5 5 5 5 5 5 6 6 6 5 5 5 5 5 5 5 5 5 5 5 5 5 5 5 5 5 5 5 5 5 5 5 5 4 4 4 4 4 4 4 4 4
10 9 9 9 9 9 9 9 8 8 8 8 7 7 7 7 7 7 6 6 6 6 6 6 6 7 7 7 7 7 6 6 6 6 6 6 6 6 5 5 5 5 5 5 5 5 5 5 5 5 5 6 6 5 5 5 5 5 5 5 5 5 5 5 5 5 5 5 5 5 5 5 5 5 5 5 4 4 4 4 4 4 4 4 4
10 9 9 8 8 8 8 8 8 8 8 7 7 7 7 7 6 6 6 6 6 6 6 6 7 7 7 7 7 6 6 6 6 6 6 5 5 5 5 5 5 5 5 5 5 5 5 5 5 5 5 5 6 6 6 5 5 5 5 5 5 6 6 5 5 5 5 5 5 5 5 5 5 5 5 5 4 4 4 4 4 4 4 4 4
9 9 8 8 8 8 8 8 8 7 7 7 7 7 7 6 6 6 6 6 6 6 6 6 7 7 7 7 6 6 6 6 6 6 5 5 5 5 5 5 5 5 5 5 5 5 5 6 6 6 6 5 6 6 6 6 6 6 6 6 6 6 6 6 5 5 5 5 5 5 5 5 5 5 5 5 4 4 4 4 4 4 4 4 4
9 9 8 8 8 7 8 7 7 7 7 7 6 6 7 6 6 6 6 6 6 6 6 6 6 6 6 6 6 6 6 6 6 5 5 5 5 5 5 5 5 5 5 5 5 5 6 6 6 6 6 6 6 6 6 6 6 6 6 6 6 6 6 6 5 5 5 5 5 5 5 5 5 5 5 5 5 5 4 4 4 4 4 4 4
9 9 8 8 7 7 7 7 7 7 7 6 6 6 7 6 6 6 6 6 6 6 6 6 6 6 6 6 6 6 5 6 6 5 5 5 5 5 5 5 5 5 5 5 5 5 6 6 6 6 6 6 7 7 6 6 6 6 6 6 6 6 6 6 5 5 5 5 5 5 5 5 5 5 5 5 5 5 5 5 4 4 4 4 4
9 9 8 8 7 7 7 7 7 7 6 6 7 6 6 6 6 6 6 6 6 6 6 6 6 6 6 6 6 5 5 5 5 5 5 5 5 5 5 5 5 5 5 6 6 6 6 6 6 6 6 7 7 7 7 7 6 6 6 6 6 6 6 6 5 5 5 5 5 5 5 5 5 5 5 5 5 5 5 4 4 4 4 4 4
9 8 8 7 7 7 7 7 6 6 6 6 7 6 6 6 6 6 6 6 6 6 6 6 6 6 6 5 5 5 5 5 5 5 5 5 5 5 5 5 5 5 6 6 6 6 6 6 6 6 7 7 7 7 7 7 7 6 6 6 6 6 6 6 5 5 5 5 5 5 5 5 5 5 5 5 5 5 5 4 4 4 4 4 4
8 8 7 7 7 7 7 7 6 6 6 6 7 6 6 6 6 6 6 6 6 6 6 6 6 6 6 5 5 5 5 5 5 5 5 5 5 5 5 5 5 5 6 6 6 6 6 6 6 7 7 7 7 7 7 7 7 6 6 6 6 6 6 5 5 5 5 5 5 5 5 5 5 5 5 5 5 5 4 4 4 4 4 4 4
8 8 7 7 6 7 7 7 6 6 6 6 7 6 6 6 6 6 6 6 6 6 6 6 6 6 5 5 5 5 5 5 5 5 5 5 5 5 5 5 5 6 6 6 6 6 6 6 6 6 7 7 7 7 7 6 6 6 6 6 6 6 5 5 5 5 5 5 5 5 5 5 5 5 5 5 4 4 4 4 4 4 4 4 4
8 8 7 7 7 6 6 6 6 6 6 6 6 6 6 6 6 6 6 6 6 6 6 6 5 5 5 5 5 5 4 4 5 5 5 5 5 5 5 6 6 6 6 6 6 6 6 6 6 6 6 6 6 6 6 6 6 6 6 6 5 5 5 5 5 5 5 5 5 5 5 5 5 4 4 4 4 4 4 4 4 3 3 3 3
8 8 7 7 7 6 6 6 6 7 7 6 6 6 6 6 6 6 6 6 6 6 6 5 5 5 4 5 5 5 4 5 5 5 5 5 5 5 6 6 6 6 6 6 6 6 6 6 6 6 6 6 6 6 6 6 6 6 6 5 5 5 5 5 5 5 5 5 5 5 4 4 4 4 4 4 4 4 4 3 3 3 3 3 3
8 8 8 7 6 6 6 6 7 7 7 6 5 6 6 6 6 6 6 6 6 5 5 5 5 4 4 4 5 4 4 5 5 5 5 5 5 5 6 6 6 6 6 6 6 6 6 6 6 6 6 6 6 6 6 6 6 6 5 5 5 5 5 5 5 5 4 4 4 4 4 4 4 4 4 4 4 4 3 3 3 3 3 3 2
8 8 7 7 6 6 6 7 7 6 6 5 5 5 6 6 6 6 6 6 5 5 5 4 4 4 4 4 4 4 4 5 5 5 5 5 5 6 6 6 6 6 6 6 6 6 6 6 6 6 6 6 6 6 6 6 5 5 5 5 5 5 5 4 4 4 4 4 4 4 4 4 4 4 4 3 3 3 3 3 3 3 2 2 2
8 7 7 7 7 7 7 6 6 6 6 5 5 6 6 6 6 6 6 6 5 5 5 4 4 4 4 4 4 4 5 5 5 5 5 5 5 6 6 6 6 6 6 6 6 6 6 6 6 6 6 6 6 6 5 5 5 5 5 5 4 4 4 4 4 4 4 4 4 4 4 4 4 3 3 3 3 3 3 3 2 2 2 2 2
8 7 7 7 8 8 7 6 5 6 6 6 5 6 6 6 6 6 6 5 5 5 4 4 4 4 4 4 4 4 5 5 5 5 5 5 5 5 6 6 6 6 6 6 6 6 6 6 6 6 6 6 5 5 5 5 5 5 5 4 4 4 4 4 4 4 4 4 4 4 4 3 3 3 3 3 3 3 2 2 2 2 2 2 2
8 7 7 7 7 7 6 5 5 6 6 6 5 6 6 6 6 5 5 5 4 4 4 4 4 4 4 4 4 4 4 5 5 5 5 5 5 5 5 6 6 6 6 6 6 6 6 6 6 6 5 5 5 5 5 5 5 4 4 4 4 3 4 4 4 4 4 4 4 3 3 3 3 3 3 3 3 2 2 2 2 2 2 2 2
8 8 8 7 6 6 6 5 5 5 6 6 5 6 6 5 5 5 5 5 4 4 4 4 4 3 4 4 4 4 4 5 5 5 5 5 5 5 5 6 6 6 6 6 6 6 6 6 6 5 5 5 5 5 5 4 4 4 4 4 4 3 3 3 4 4 3 3 3 3 3 3 3 3 2 2 2 2 2 2 2 2 2 2 2
8 8 8 7 6 6 6 5 5 5 6 5 5 6 5 5 5 5 4 4 4 4 4 3 3 3 4 4 4 4 4 5 5 5 5 5 5 5 5 6 6 6 6 6 6 6 6 6 5 5 5 5 4 4 4 4 4 4 4 4 4 4 4 4 3 3 3 3 3 3 3 3 3 2 2 2 2 2 2 2 2 2 2 2 2
8 8 8 7 6 5 5 5 5 5 5 5 5 5 5 5 5 4 4 4 4 4 3 3 3 4 4 4 4 4 4 5 5 5 5 5 5 5 6 6 6 6 6 6 6 6 6 6 5 5 5 4 4 4 4 4 4 4 4 4 4 4 4 3 3 3 3 3 3 3 3 3 2 2 2 2 2 2 2 2 1 1 1 1 1
8 8 7 7 6 5 5 5 5 5 5 5 5 5 5 5 5 4 4 4 4 4 4 4 4 4 4 4 4 4 5 5 5 5 5 5 5 6 6 6 6 6 6 6 6 6 6 5 5 5 5 4 4 4 4 4 4 4 4 4 4 4 4 3 3 3 3 3 3 2 2 2 2 2 2 2 2 2 2 1 1 1 1 1 1
8 8 7 7 6 6 5 5 5 5 5 5 5 5 5 5 5 4 4 4 4 4 4 4 4 4 4 4 4 4 5 5 5 5 5 5 6 6 6 6 6 6 6 6 6 5 5 5 5 5 4 4 4 4 4 4 4 4 4 4 4 4 3 3 3 3 3 2 2 2 2 2 2 2 2 2 2 1 1 1 1 1 1 0 1
8 8 7 7 6 6 6 6 5 5 5 5 5 5 5 5 5 4 4 4 4 4 4 4 4 4 4 4 4 4 5 5 5 5 5 5 6 6 6 6 6 6 6 6 5 5 5 5 5 5 4 4 4 4 4 4 4 4 4 4 4 3 3 3 3 3 3 2 2 2 2 2 2 2 1 1 1 1 1 1 0 0 0 0 0
Height
3196 3196 3197 3197 3197 3197 3197 3197 3197 3198 3198 3198 3198 3198 3198 3198 3199 3199 3198 3197 3197 3197 3196 3196 3195 3195 3194 3194 3194 3193 3193 3192 3192 3191 3191 3190 3189 3189 3189 3188 3187 3187 3187 3186 3186 3186 3186 3186 3186 3186 3186 3186 3187 3187 3187 3188 3188 3188 3188 3188 3188 3188 3188 3188 3188 3188 3188 3187 3187 3187 3187 3187 3187 3186 3186 3185 3185 3184 3183 3182 3182 3181 3180 3179 3179
3196 3196 3197 3197 3197 3197 3198 3198 3198 3198 3198 3198 3199 3199 3199 3199 3199 3199 3199 3198 3198 3198 3197 3196 3196 3195 3195 3195 3194 3194 3193 3193 3193 3192 3191 3191 3190 3190 3189 3189 3188 3188 3187 3187 3187 3187 3187 3186 3186 3187 3187 3187 3188 3188 3188 3188 3189 3189 3189 3189 3189 3188 3188 3188 3188 3188 3188 3188 3188 3188 3188 3188 3187 3187 3187 3186 3185 3184 3183 3183 3182 3181 3180 3180 3179
3196 3196 3197 3197 3197 3198 3198 3198 3198 3198 3198 3199 3199 3199 3199 3199 3199 3199 3199 3198 3198 3198 3198 3197 3196 3196 3195 3195 3195 3194 3194 3194 3193 3192 3192 3191 3191 3190 3190 3189 3189 3188 3188 3187 3187 3187 3187 3187 3187 3187 3188 3188 3189 3189 3189 3189 3189 3190 3190 3189 3189 3189 3189 3189 3189 3189 3189 3189 3189 3189 3188 3188 3188 3187 3187 3186 3186 3185 3184 3183 3182 3181 3181 3180 3179
3195 3196 3197 3197 3198 3198 3198 3198 3198 3198 3199 3199 3199 3200 3200 3200 3200 3200 3199 3199 3198 3198 3198 3197 3197 3196 3196 3196 3195 3195 3194 3194 3193 3193 3192 3192 3191 3191 3190 3190 3189 3189 3188 3188 3188 3188 3188 3188 3188 3188 3188 3189 3189 3190 3190 3190 3190 3190 3190 3190 3190 3190 3190 3190 3189 3189 3189 3189 3189 3189 3188 3188 3188 3187 3187 3186 3186 3185 3184 3183 3183 3182 3181 3180 3179
3195 3196 3196 3197 3197 3197 3198 3198 3198 3198 3199 3199 3200 3200 3200 3200 3200 3200 3200 3199 3199 3199 3198 3198 3197 3197 3196 3196 3195 3195 3195 3195 3194 3193 3193 3192 3192 3191 3191 3190 3190 3189 3189 3189 3188 3188 3188 3188 3189 3189 3189 3190 3190 3191 3191 3191 3191 3191 3191 3191 3191 3191 3191 3190 3190 3190 3189 3189 3189 3189 3188 3188 3188 3188 3187 3186 3186 3185 3184 3183 3183 3182 3181 3180 3179
3195 3195 3196 3197 3197 3197 3197 3198 3198 3198 3199 3199 3199 3200 3200 3200 3200 3200 3200 3199 3199 3199 3198 3198 3198 3197 3197 3196 3196 3196 3195 3195 3195 3194 3193 3193 3192 3192 3191 3191 3190 3190 3190 3189 3189 3189 3189 3189 3189 3190 3190 3190 3191 3191 3192 3192 3192 3192 3192 3192 3192 3192 3191 3191 3191 3190 3190 3190 3189 3189 3189 3189 3188 3188 3187 3187 3186 3185 3184 3183 3182 3181 3180 3180 3179
3194 3195 3195 3196 3197 3197 3197 3197 3198 3198 3199 3199 3199 3199 3200 3200 3200 3200 3200 3200 3199 3199 3199 3198 3198 3198 3197 3197 3196 3196 3196 3195 3195 3194 3194 3193 3193 3193 3192 3192 3191 3191 3190 3190 3190 3189 3190 3190 3190 3190 3191 3191 3192 3192 3192 3193 3193 3193 3193 3193 3192 3192 3192 3192 3191 3191 3191 3190 3190 3190 3189 3189 3188 3188 3187 3186 3186 3185 3184 3183 3182 3181 3180 3179 3178
3194 3194 3195 3195 3196 3196 3197 3197 3198 3198 3199 3199 3199 3199 3200 3200 3200 3200 3200 3200 3199 3199 3199 3199 3198 3198 3198 3197 3197 3197 3196 3196 3196 3195 3195 3194 3194 3193 3193 3192 3192 3191 3191 3191 3190 3190 3190 3191 3191 3191 3192 3192 3192 3193 3193 3193 3193 3193 3193 3193 3193 3193 3193 3192 3192 3192 3191 3191 3190 3190 3190 3189 3188 3187 3187 3186 3185 3185 3184 3183 3182 3180 3179 3178 3177
3194 3194 3194 3194 3195 3196 3196 3197 3198 3198 3198 3199 3199 3199 3199 3200 3200 3200 3200 3200 3199 3199 3199 3199 3199 3198 3198 3198 3197 3197 3197 3196 3196 3196 3195 3195 3194 3194 3193 3193 3193 3192 3192 3192 3191 3191 3191 3191 3192 3192 3192 3193 3193 3193 3194 3194 3194 3194 3194 3194 3194 3193 3193 3193 3192 3192 3191 3191 3191 3191 3190 3190 3188 3187 3187 3186 3185 3184 3183 3182 3181 3179 3178 3177 3176
3194 3194 3194 3194 3194 3195 3196 3197 3197 3198 3198 3198 3198 3198 3199 3200 3200 3200 3200 3200 3199 3199 3199 3199 3199 3199 3199 3198 3198 3197 3197 3197 3197 3196 3196 3195 3195 3194 3194 3194 3193 3193 3193 3192 3192 3192 3192 3192 3193 3193 3193 3194 3194 3194 3194 3195 3195 3195 3194 3194 3194 3194 3194 3193 3193 3192 3192 3191 3191 3191 3190 3190 3188 3187 3186 3185 3184 3183 3182 3181 3179 3178 3177 3177 3176
3193 3193 3193 3193 3194 3195 3196 3197 3197 3197 3198 3198 3198 3198 3198 3199 3200 3200 3200 3200 3200 3199 3199 3199 3199 3199 3199 3199 3198 3198 3197 3197 3197 3196 3196 3196 3195 3195 3194 3194 3194 3194 3194 3193 3193 3193 3193 3193 3194 3194 3194 3194 3195 3195 3195 3195 3195 3195 3195 3195 3195 3194 3194 3194 3193 3193 3192 3192 3191 3191 3190 3189 3188 3187 3186 3185 3184 3183 3182 3180 3179 3178 3177 3176 3175
3193 3193 3193 3193 3194 3194 3195 3196 3196 3197 3197 3197 3197 3197 3198 3199 3199 3200 3200 3200 3199 3199 3199 3199 3199 3199 3199 3199 3198 3198 3197 3197 3197 3197 3196 3196 3196 3195 3195 3194 3194 3194 3194 3194 3194 3194 3194 3194 3194 3195 3195 3195 3196 3196 3196 3196 3196 3196 3195 3195 3195 3195 3195 3194 3194 3193 3192 3192 3191 3190 3189 3188 3187 3186 3185 3184 3183 3182 3181 3179 3178 3177 3176 3175 3174
3192 3192 3192 3193 3193 3194 3195 3195 3195 3196 3196 3196 3196 3196 3197 3198 3199 3199 3200 3200 3199 3199 3199 3199 3199 3199 3199 3199 3199 3198 3198 3197 3197 3197 3197 3196 3196 3196 3195 3195 3195 3195 3195 3195 3195 3195 3195 3195 3195 3195 3196 3196 3196 3196 3196 3196 3196 3196 3196 3196 3195 3195 3195 3194 3194 3193 3192 3192 3191 3190 3189 3188 3187 3186 3185 3183 3182 3181 3179 3178 3178 3177 3176 3174 3173
3192 3192 3192 3192 3193 3193 3194 3194 3194 3195 3195 3196 3196 3196 3196 3197 3198 3199 3199 3199 3199 3199 3199 3199 3199 3199 3199 3199 3199 3198 3198 3198 3197 3197 3197 3197 3197 3196 3196 3195 3195 3195 3196 3195 3195 3195 3195 3196 3196 3196 3196 3197 3197 3197 3197 3197 3197 3196 3196 3196 3196 3195 3195 3194 3193 3193 3192 3191 3190 3189 3188 3187 3186 3185 3184 3183 3181 3180 3179 3178 3177 3176 3174 3173 3172
3192 3192 3192 3192 3192 3193 3193 3193 3193 3194 3195 3195 3195 3195 3196 3196 3197 3198 3199 3199 3199 3199 3199 3199 3199 3199 3199 3199 3199 3198 3198 3198 3198 3197 3197 3197 3197 3197 3196 3196 3196 3196 3196 3196 3196 3196 3196 3196 3196 3196 3197 3197 3197 3197 3197 3197 3197 3197 3196 3196 3196 3195 3195 3194 3193 3192 3191 3191 3190 3189 3188 3186 3185 3184 3183 3182 3181 3179 3178 3177 3176 3175 3173 3172 3171
3191 3191 3191 3192 3192 3192 3192 3192 3192 3193 3194 3194 3194 3194 3195 3196 3197 3198 3198 3198 3198 3198 3198 3199 3199 3199 3199 3199 3199 3199 3198 3198 3198 3198 3197 3197 3197 3197 3197 3197 3197 3197 3197 3197 3197 3197 3197 3197 3197 3197 3197 3197 3197 3197 3197 3197 3197 3197 3197 3196 3196 3195 3195 3194 3193 3192 3191 3190 3189 3188 3187 3186 3184 3183 3182 3181 3180 3179 3177 3177 3176 3174 3173 3171 3170
3190 3190 3190 3190 3190 3190 3190 3190 3191 3191 3192 3193 3193 3193 3194 3195 3196 3197 3197 3198 3198 3198 3198 3198 3199 3199 3199 3199 3199 3199 3199 3198 3198 3198 3198 3197 3197 3197 3197 3197 3197 3197 3197 3197 3197 3197 3197 3197 3197 3197 3197 3197 3197 3197 3197 3197 3197 3197 3196 3196 3195 3195 3194 3193 3192 3191 3190 3190 3188 3187 3186 3185 3183 3182 3181 3181 3180 3178 3177 3176 3175 3173 3172 3171 3170
3189 3188 3188 3188 3188 3189 3189 3189 3190 3190 3191 3192 3192 3192 3193 3195 3196 3196 3197 3197 3197 3197 3198 3198 3199 3199 3199 3199 3199 3199 3199 3198 3198 3198 3198 3197 3197 3197 3197 3197 3197 3197 3197 3197 3197 3197 3197 3197 3197 3197 3197 3197 3197 3197 3197 3197 3196 3196 3196 3195 3194 3194 3193 3193 3192 3191 3190 3189 3188 3186 3185 3184 3183 3182 3181 3180 3179 3177 3176 3176 3174 3173 3171 3170 3169
3187 3186 3187 3187 3188 3188 3188 3188 3188 3189 3190 3191 3191 3192 3193 3195 3195 3196 3196 3196 3196 3196 3197 3198 3198 3198 3199 3199 3199 3199 3199 3198 3198 3198 3198 3197 3197 3197 3197 3197 3197 3197 3197 3197 3197 3197 3197 3197 3197 3197 3197 3197 3196 3196 3196 3196 3196 3195 3195 3194 3193 3193 3192 3192 3191 3190 3189 3188 3187 3185 3184 3183 3182 3181 3181 3180 3179 3177 3176 3175 3174 3172 3171 3170 3168
3187 3186 3187 3187 3187 3188 3187 3187 3188 3188 3189 3190 3190 3191 3193 3194 3194 3195 3195 3196 3196 3196 3196 3197 3198 3198 3198 3198 3199 3199 3199 3198 3198 3198 3198 3197 3197 3197 3196 3196 3196 3196 3197 3197 3197 3197 3197 3196 3197 3197 3196 3196 3196 3196 3195 3195 3195 3194 3194 3193 3192 3192 3191 3191 3190 3190 3188 3187 3186 3184 3183 3183 3182 3181 3180 3180 3179 3177 3175 3175 3173 3172 3170 3169 3168
3186 3186 3187 3187 3187 3187 3187 3187 3187 3187 3188 3188 3189 3190 3192 3193 3194 3194 3195 3195 3195 3195 3196 3196 3197 3197 3197 3198 3198 3198 3198 3198 3198 3198 3197 3197 3197 3196 3196 3196 3196 3196 3196 3196 3196 3196 3196 3196 3196 3196 3196 3196 3196 3195 3195 3194 3194 3193 3193 3192 3191 3191 3190 3190 3190 3189 3188 3186 3185 3184 3183 3183 3182 3180 3179 3179 3178 3176 3175 3174 3172 3171 3170 3168 3167
3186 3186 3186 3186 3186 3186 3186 3186 3186 3186 3186 3187 3188 3190 3191 3192 3193 3193 3194 3194 3194 3195 3195 3195 3196 3197 3197 3197 3198 3198 3198 3198 3198 3198 3197 3197 3197 3196 3196 3196 3195 3195 3196 3196 3196 3196 3195 3195 3195 3195 3195 3195 3195 3195 3194 3194 3193 3193 3192 3191 3191 3191 3190 3190 3189 3189 3187 3185 3184 3184 3183 3182 3181 3180 3178 3178 3177 3175 3174 3173 3172 3170 3169 3168 3166
3184 3185 3185 3185 3185 3185 3185 3185 3185 3185 3186 3187 3188 3189 3190 3191 3192 3193 3193 3194 3194 3194 3194 3195 3195 3196 3197 3197 3198 3198 3198 3198 3197 3197 3197 3196 3196 3196 3196 3195 3195 3195 3195 3195 3195 3195 3195 3195 3195 3194 3194 3194 3194 3194 3194 3193 3193 3192 3192 3191 3191 3191 3190 3190 3189 3188 3185 3184 3184 3183 3182 3182 3181 3179 3178 3177 3177 3175 3173 3173 3171 3170 3168 3167 3165
3183 3183 3183 3184 3184 3184 3184 3183 3184 3184 3185 3186 3187 3189 3190 3190 3191 3192 3192 3193 3193 3194 3194 3194 3195 3196 3196 3197 3197 3197 3197 3197 3197 3197 3196 3196 3196 3195 3195 3195 3195 3195 3195 3195 3195 3195 3195 3195 3194 3194 3194 3194 3194 3194 3194 3193 3193 3192 3192 3191 3191 3191 3190 3189 3188 3187 3184 3183 3184 3183 3182 3181 3180 3179 3177 3177 3176 3174 3173 3172 3170 3169 3168 3166 3165
3182 3182 3183 3183 3183 3183 3183 3182 3183 3184 3185 3186 3187 3188 3189 3190 3190 3191 3192 3192 3193 3193 3194 3194 3194 3195 3195 3196 3196 3196 3196 3196 3196 3196 3196 3195 3195 3195 3195 3195 3195 3195 3195 3195 3195 3195 3195 3194 3194 3194 3194 3193 3193 3193 3193 3193 3192 3192 3191 3191 3191 3190 3190 3189 3188 3186 3184 3183 3183 3182 3182 3180 3179 3178 3176 3176 3175 3174 3172 3171 3169 3168 3167 3166 3164
3182 3182 3182 3183 3182 3182 3181 3181 3182 3183 3184 3185 3186 3187 3188 3189 3190 3190 3191 3192 3192 3193 3193 3193 3194 3194 3195 3195 3195 3196 3196 3196 3196 3196 3195 3195 3195 3195 3195 3195 3195 3195 3195 3195 3195 3195 3195 3195 3194 3194 3193 3193 3193 3192 3192 3192 3192 3191 3191 3190 3190 3190 3189 3188 3187 3185 3183 3183 3183 3182 3181 3180 3179 3177 3176 3175 3174 3173 3172 3170 3169 3167 3166 3165 3164
3181 3181 3181 3181 3181 3181 3180 3180 3181 3182 3183 3184 3186 3187 3187 3188 3189 3189 3190 3191 3191 3192 3192 3192 3193 3193 3194 3194 3195 3195 3195 3195 3195 3195 3195 3195 3195 3195 3195 3195 3195 3195 3195 3195 3195 3195 3195 3195 3194 3194 3193 3193 3192 3192 3191 3191 3191 3191 3190 3190 3190 3189 3189 3188 3187 3185 3183 3183 3183 3182 3180 3179 3178 3177 3176 3175 3174 3172 3171 3170 3168 3167 3166 3165 3163
3180 3180 3180 3180 3179 3179 3179 3179 3180 3181 3183 3184 3185 3186 3187 3187 3188 3189 3189 3190 3190 3191 3191 3191 3191 3192 3193 3193 3194 3195 3195 3195 3195 3195 3195 3194 3194 3194 3194 3194 3194 3195 3195 3195 3194 3194 3194 3194 3194 3193 3193 3192 3192 3191 3191 3190 3190 3190 3190 3189 3189 3189 3188 3187 3186 3185 3184 3183 3182 3181 3180 3179 3178 3176 3175 3174 3173 3172 3170 3169 3168 3167 3165 3164 3163
3179 3179 3179 3178 3178 3178 3179 3179 3180 3181 3182 3183 3184 3185 3186 3187 3187 3188 3188 3189 3189 3190 3190 3190 3190 3191 3192 3193 3193 3194 3194 3194 3194 3194 3194 3194 3194 3194 3194 3194 3194 3194 3194 3194 3194 3194 3194 3193 3193 3193 3192 3192 3192 3191 3190 3190 3190 3189 3189 3189 3189 3188 3188 3187 3186 3185 3183 3182 3182 3181 3179 3178 3177 3176 3175 3173 3172 3171 3170 3168 3167 3166 3165 3163 3162
3177 3177 3177 3177 3177 3177 3178 3179 3179 3180 3182 3183 3184 3185 3185 3186 3187 3187 3187 3188 3188 3189 3189 3189 3190 3190 3191 3192 3192 3193 3193 3193 3193 3194 3194 3194 3193 3193 3193 3193 3193 3193 3193 3193 3193 3193 3193 3192 3192 3192 3192 3191 3191 3191 3190 3190 3189 3189 3188 3188 3188 3188 3187 3186 3186 3184 3183 3182 3181 3180 3178 3177 3176 3175 3174 3173 3171 3170 3169 3168 3166 3165 3163 3162 3161
3175 3175 3175 3175 3176 3176 3177 3178 3179 3180 3181 3182 3183 3184 3185 3185 3186 3186 3187 3187 3187 3188 3188 3188 3189 3190 3190 3191 3191 3192 3192 3193 3193 3193 3193 3193 3193 3192 3192 3192 3192 3192 3192 3192 3192 3192 3192 3192 3191 3191 3191 3190 3190 3190 3189 3189 3188 3188 3188 3188 3187 3187 3187 3186 3185 3184 3182 3181 3180 3179 3178 3177 3175 3174 3173 3171 3170 3169 3168 3167 3165 3164 3162 3161 3159
3173 3174 3173 3174 3175 3175 3176 3177 3178 3179 3180 3182 3183 3183 3184 3184 3185 3186 3186 3186 3186 3187 3187 3187 3188 3189 3189 3190 3191 3191 3191 3192 3192 3192 3192 3192 3192 3192 3192 3192 3192 3191 3191 3191 3191 3191 3191 3191 3191 3190 3190 3190 3189 3189 3189 3188 3188 3188 3188 3187 3187 3186 3186 3185 3184 3183 3181 3180 3179 3178 3177 3175 3174 3173 3172 3170 3169 3168 3167 3165 3164 3162 3160 3159 3157
3172 3172 3172 3172 3173 3174 3175 3176 3177 3178 3180 3181 3182 3183 3183 3184 3184 3185 3185 3185 3185 3186 3186 3187 3187 3188 3189 3189 3190 3190 3190 3191 3191 3191 3191 3191 3191 3191 3191 3191 3191 3191 3191 3191 3191 3190 3190 3190 3190 3190 3189 3189 3189 3189 3188 3188 3187 3187 3187 3187 3186 3186 3185 3184 3182 3181 3180 3179 3178 3176 3175 3174 3173 3172 3170 3169 3167 3166 3165 3163 3162 3160 3158 3156 3155
3170 3170 3171 3171 3172 3173 3174 3175 3177 3178 3179 3180 3181 3182 3183 3183 3183 3184 3184 3184 3184 3185 3185 3186 3187 3187 3188 3188 3188 3189 3189 3190 3190 3190 3190 3190 3190 3190 3190 3190 3190 3190 3190 3190 3190 3189 3189 3190 3189 3189 3189 3189 3188 3188 3188 3187 3187 3187 3186 3186 3185 3184 3183 3182 3181 3180 3178 3177 3176 3175 3174 3173 3172 3170 3169 3167 3165 3164 3162 3161 3159 3158 3156 3155 3153
3168 3169 3169 3170 3171 3172 3173 3175 3176 3177 3178 3179 3181 3182 3182 3182 3182 3183 3183 3183 3183 3184 3185 3185 3186 3186 3186 3186 3187 3188 3188 3188 3189 3189 3190 3190 3190 3189 3189 3189 3189 3189 3189 3189 3189 3189 3189 3189 3189 3188 3188 3188 3187 3187 3187 3186 3186 3185 3185 3185 3184 3183 3182 3181 3179 3178 3177 3176 3175 3174 3173 3172 3170 3168 3166 3165 3163 3161 3160 3159 3157 3156 3154 3153 3151
3167 3167 3168 3169 3169 3170 3171 3173 3174 3175 3177 3179 3180 3180 3181 3181 3182 3182 3182 3182 3183 3183 3184 3184 3185 3185 3185 3186 3186 3187 3187 3187 3188 3189 3189 3189 3189 3189 3189 3189 3188 3189 3188 3188 3188 3188 3189 3188 3188 3188 3187 3187 3187 3186 3186 3185 3185 3184 3184 3183 3182 3181 3180 3179 3178 3177 3176 3175 3174 3173 3171 3170 3168 3166 3164 3163 3161 3160 3158 3157 3155 3154 3152 3151 3149
3166 3166 3167 3167 3168 3169 3170 3171 3172 3174 3176 3178 3179 3179 3180 3181 3181 3182 3182 3182 3182 3182 3183 3183 3184 3184 3185 3185 3186 3186 3186 3187 3187 3188 3188 3188 3188 3188 3188 3188 3188 3188 3188 3188 3188 3188 3188 3187 3187 3187 3186 3186 3186 3185 3185 3184 3184 3183 3182 3181 3180 3179 3178 3177 3176 3175 3175 3174 3172 3171 3170 3168 3166 3164 3162 3161 3159 3158 3156 3155 3153 3151 3150 3148 3147
3164 3165 3165 3165 3166 3167 3168 3170 3171 3173 3176 3177 3178 3178 3179 3180 3180 3181 3181 3181 3181 3182 3182 3182 3183 3183 3184 3185 3185 3185 3186 3186 3186 3187 3187 3187 3187 3187 3187 3187 3187 3187 3187 3187 3187 3187 3186 3186 3186 3186 3185 3185 3185 3184 3184 3183 3182 3182 3181 3179 3178 3177 3176 3176 3175 3174 3173 3172 3171 3169 3168 3166 3164 3162 3161 3159 3157 3156 3154 3152 3151 3149 3148 3146 3145
3163 3163 3163 3163 3164 3165 3166 3168 3170 3173 3175 3176 3176 3176 3177 3179 3179 3179 3180 3180 3181 3181 3181 3181 3182 3182 3183 3183 3184 3184 3185 3185 3185 3186 3186 3186 3186 3186 3187 3187 3186 3186 3186 3186 3186 3186 3185 3185 3185 3185 3185 3184 3183 3183 3182 3182 3181 3180 3179 3178 3177 3176 3175 3174 3173 3172 3171 3170 3169 3168 3166 3164 3163 3161 3159 3157 3155 3154 3152 3150 3148 3147 3145 3144 3143
3161 3161 3161 3162 3162 3163 3165 3167 3170 3172 3173 3173 3175 3176 3177 3177 3178 3178 3178 3179 3179 3180 3180 3180 3180 3181 3181 3182 3183 3183 3184 3184 3184 3185 3185 3185 3185 3186 3186 3185 3185 3185 3185 3185 3185 3185 3185 3184 3184 3184 3184 3183 3182 3182 3181 3180 3179 3178 3177 3176 3175 3174 3173 3172 3171 3171 3169 3168 3167 3165 3164 3162 3161 3159 3158 3156 3154 3152 3150 3148 3146 3145 3143 3142 3140
3159 3159 3159 3160 3161 3162 3164 3166 3169 3171 3171 3172 3174 3175 3175 3176 3176 3177 3177 3177 3178 3178 3178 3178 3179 3179 3179 3180 3181 3182 3182 3183 3183 3184 3184 3185 3185 3185 3185 3184 3184 3184 3184 3184 3184 3184 3184 3183 3183 3183 3183 3182 3181 3181 3180 3179 3178 3176 3175 3174 3173 3172 3171 3170 3170 3169 3167 3166 3165 3163 3162 3161 3159 3158 3156 3154 3152 3151 3149 3147 3145 3143 3141 3140 3138
3157 3157 3158 3158 3160 3162 3163 3165 3168 3170 3170 3171 3173 3174 3174 3174 3175 3175 3175 3175 3175 3176 3176 3177 3178 3177 3177 3178 3180 3181 3181 3182 3182 3183 3183 3184 3184 3184 3184 3183 3183 3183 3183 3183 3183 3183 3183 3182 3182 3182 3182 3181 3180 3179 3178 3177 3176 3175 3174 3173 3172 3171 3170 3169 3168 3167 3165 3164 3163 3162 3160 3159 3157 3156 3154 3152 3151 3149 3148 3146 3144 3142 3140 3138 3136
3155 3155 3155 3157 3159 3160 3161 3163 3166 3167 3168 3170 3171 3172 3173 3173 3173 3174 3174 3173 3173 3174 3174 3175 3176 3176 3175 3177 3179 3180 3180 3181 3181 3182 3182 3182 3183 3182 3182 3182 3182 3182 3182 3182 3182 3182 3182 3181 3181 3181 3180 3180 3179 3178 3177 3175 3174 3173 3172 3171 3170 3169 3168 3167 3166 3165 3164 3163 3161 3160 3159 3157 3155 3154 3152 3151 3149 3148 3146 3144 3142 3140 3138 3136 3134
3153 3153 3153 3156 3158 3158 3158 3161 3164 3166 3167 3169 3170 3170 3170 3170 3171 3172 3172 3171 3172 3172 3172 3172 3174 3173 3174 3176 3178 3178 3179 3180 3180 3181 3181 3181 3181 3181 3181 3181 3181 3181 3181 3181 3181 3181 3181 3180 3180 3179 3179 3178 3177 3176 3175 3174 3173 3172 3171 3170 3168 3167 3166 3165 3164 3164 3163 3161 3160 3158 3157 3155 3153 3152 3150 3149 3147 3146 3144 3142 3140 3138 3136 3134 3132
3150 3150 3153 3157 3156 3154 3156 3159 3162 3164 3166 3167 3167 3167 3167 3168 3169 3170 3171 3170 3170 3170 3171 3171 3171 3171 3173 3175 3176 3177 3178 3178 3179 3180 3180 3180 3180 3180 3180 3180 3180 3180 3180 3180 3180 3180 3180 3179 3179 3178 3177 3176 3175 3174 3173 3172 3172 3171 3170 3169 3168 3166 3165 3164 3163 3162 3161 3160 3159 3157 3155 3154 3152 3150 3149 3147 3145 3143 3142 3140 3138 3136 3134 3132 3130
3148 3149 3154 3155 3153 3152 3153 3155 3159 3162 3164 3164 3164 3164 3166 3167 3168 3168 3169 3170 3169 3169 3170 3171 3170 3171 3173 3174 3175 3176 3176 3177 3178 3178 3179 3179 3179 3179 3179 3179 3180 3180 3180 3180 3179 3179 3179 3178 3177 3176 3175 3174 3173 3172 3171 3170 3170 3169 3168 3168 3167 3165 3164 3163 3162 3161 3160 3159 3157 3155 3154 3152 3151 3149 3147 3145 3143 3141 3139 3137 3136 3134 3132 3130 3128
3146 3148 3152 3152 3150 3150 3150 3152 3157 3160 3161 3161 3161 3163 3164 3165 3166 3166 3167 3168 3168 3168 3169 3170 3170 3172 3173 3173 3173 3174 3175 3176 3177 3177 3177 3177 3178 3178 3178 3179 3179 3179 3179 3178 3178 3178 3177 3176 3175 3174 3173 3172 3171 3170 3169 3169 3168 3167 3167 3166 3165 3164 3163 3162 3161 3159 3158 3157 3155 3154 3152 3150 3149 3147 3145 3144 3142 3140 3138 3136 3134 3132 3130 3128 3125
3144 3147 3150 3148 3147 3148 3148 3151 3155 3158 3159 3159 3160 3162 3162 3163 3163 3164 3164 3165 3166 3167 3168 3169 3170 3170 3171 3171 3172 3173 3174 3175 3175 3176 3176 3176 3177 3177 3177 3177 3177 3177 3177 3177 3177 3176 3175 3175 3174 3173 3172 3171 3170 3169 3168 3167 3167 3166 3165 3165 3164 3163 3162 3161 3159 3158 3156 3155 3154 3152 3150 3148 3147 3145 3144 3142 3140 3138 3136 3134 3132 3129 3127 3125 3123
3143 3145 3148 3145 3144 3146 3147 3148 3152 3155 3157 3158 3159 3160 3161 3161 3162 3162 3163 3163 3164 3165 3166 3167 3168 3168 3169 3170 3171 3172 3173 3173 3174 3174 3175 3175 3176 3176 3176 3176 3176 3176 3176 3175 3175 3174 3174 3173 3172 3171 3170 3170 3169 3168 3167 3167 3166 3165 3164 3164 3163 3162 3161 3159 3158 3156 3155 3153 3151 3150 3148 3147 3145 3144 3142 3140 3138 3136 3134 3132 3130 3128 3125 3123 3121
3141 3143 3145 3144 3143 3144 3146 3146 3149 3152 3155 3156 3158 3158 3159 3159 3160 3161 3162 3162 3163 3163 3164 3165 3166 3167 3168 3169 3170 3170 3171 3172 3172 3173 3173 3174 3174 3174 3175 3175 3174 3174 3174 3173 3173 3172 3172 3171 3170 3170 3169 3169 3168 3167 3166 3166 3165 3164 3163 3163 3162 3160 3159 3158 3156 3155 3153 3151 3149 3148 3146 3145 3143 3142 3140 3138 3136 3134 3133 3131 3128 3126 3124 3122 3119
3139 3141 3143 3143 3143 3144 3145 3146 3147 3150 3153 3155 3156 3156 3157 3158 3159 3160 3160 3161 3162 3162 3162 3163 3165 3166 3167 3168 3168 3169 3170 3170 3171 3171 3172 3172 3173 3173 3173 3173 3173 3172 3172 3172 3171 3171 3170 3169 3169 3168 3168 3167 3166 3166 3165 3165 3164 3163 3162 3161 3160 3159 3158 3157 3155 3154 3152 3151 3149 3147 3145 3144 3142 3141 3139 3137 3135 3133 3132 3130 3127 3125 3123 3120 3118
Wind_Speed
10 10 10 10 9 9 8 8 7 6 6 5 5 7 9 10 10 10 12 12 13 14 15 15 14 12 11 12 12 12 11 11 11 11 11 11 11 12 12 11 10 8 8 7 7 8 8 9 10 10 11 12 13 13 12 13 14 14 14 13 13 13 12 12 11 11 11 10 10 10 10 10 10 10 10 10 11 11 12 12 12 12 13 14 14
11 10 11 10 9 9 8 7 6 5 4 4 4 6 7 8 9 9 10 11 12 13 14 14 13 12 11 11 11 11 11 11 11 11 10 10 10 11 11 11 10 9 8 7 7 8 9 10 10 11 12 13 13 13 12 13 14 14 13 13 13 12 12 11 11 10 9 9 9 9 9 9 9 9 9 10 10 11 11 11 11 12 13 14 14
13 12 12 11 9 8 8 7 6 5 3 2 2 4 6 7 8 8 9 10 11 12 13 13 13 11 10 10 10 10 11 11 10 10 10 10 10 10 11 11 10 9 7 7 8 8 9 11 11 12 13 13 12 12 13 14 14 13 13 13 13 12 11 10 10 9 9 8 8 7 7 7 8 8 9 10 10 11 11 12 12 13 13 14 14
13 14 13 12 10 9 8 7 6 5 4 1 1 3 5 6 7 7 8 9 10 11 12 13 12 11 10 10 10 10 11 11 10 10 10 10 10 10 10 10 9 9 7 7 8 8 10 11 12 13 13 13 12 12 13 14 13 13 12 12 11 11 10 9 9 8 8 7 7 6 6 7 7 8 10 11 11 12 13 13 14 14 14 15 15
11 14 15 14 12 10 9 8 7 6 4 2 1 1 3 5 6 6 7 8 9 9 11 12 11 11 10 9 9 10 10 10 10 10 9 9 9 10 10 10 9 8 7 7 8 9 10 12 13 13 13 13 12 12 13 13 13 12 11 11 10 9 8 7 7 6 6 6 6 6 7 8 8 9 10 11 12 13 14 15 15 16 16 17 17
9 13 16 16 14 12 10 10 8 7 6 4 3 2 3 4 5 5 5 7 7 8 9 10 10 10 9 9 9 9 10 10 10 9 9 9 9 10 10 9 8 8 7 7 8 9 11 12 13 13 13 13 12 12 12 12 12 11 10 9 8 7 6 5 5 5 5 5 6 7 8 8 9 10 11 12 13 14 15 16 17 18 19 19 20
8 12 15 17 16 14 12 11 9 8 7 5 4 3 3 4 5 5 4 6 6 7 8 9 9 9 9 8 8 9 10 10 10 9 9 9 9 9 10 9 8 7 7 7 8 9 11 12 13 13 12 12 12 12 12 11 10 9 8 7 6 5 4 4 4 5 5 6 7 9 9 10 10 11 12 14 15 16 17 18 19 20 21 21 22
6 11 14 17 17 16 15 13 11 9 8 7 6 4 5 5 5 4 4 5 5 5 7 8 8 8 8 8 8 8 9 9 9 9 8 9 9 9 10 9 7 7 7 7 8 9 10 11 12 12 12 11 11 11 10 9 8 7 6 5 4 3 4 4 5 6 7 8 9 10 11 12 12 13 14 16 17 18 19 20 21 21 22 23 23
5 9 12 15 18 18 17 15 12 11 9 8 7 6 6 6 6 5 3 4 4 4 5 7 7 8 8 7 7 7 8 9 9 8 8 9 9 10 10 9 7 7 7 7 8 8 9 10 11 11 10 10 10 10 9 8 7 6 5 3 2 3 4 5 6 8 8 8 10 11 12 13 14 15 17 18 19 20 21 22 23 23 23 23 23
4 6 11 14 16 18 17 16 14 12 11 10 9 7 7 7 7 5 3 3 3 3 4 6 6 7 7 6 6 7 8 8 8 8 8 8 9 9 10 8 7 6 6 7 7 8 8 9 9 10 9 9 8 8 7 6 5 4 2 1 2 4 5 7 8 9 10 10 12 13 13 14 16 17 19 20 21 22 23 24 24 24 24 24 24
3 6 10 12 15 17 17 17 16 14 13 12 10 8 7 8 7 6 3 2 2 2 3 5 6 6 6 6 5 6 7 7 7 7 7 7 8 9 9 8 7 6 6 6 7 7 7 8 8 8 8 7 7 6 5 4 3 1 1 3 4 6 7 8 10 11 12 13 14 15 15 16 17 18 20 21 22 23 23 24 24 24 24 25 24
3 6 9 11 13 15 16 17 17 16 15 14 11 9 8 9 8 7 4 2 1 1 3 4 5 6 5 5 5 6 6 7 7 6 6 7 7 8 8 7 7 6 6 6 6 7 7 6 6 6 6 6 5 4 3 2 1 1 3 4 6 7 9 10 11 12 13 14 15 15 16 17 18 19 21 22 23 23 24 24 24 25 25 25 24
2 6 8 9 12 14 15 16 17 17 17 15 12 10 9 9 10 8 5 3 1 1 2 4 4 5 5 5 5 5 6 6 7 6 6 6 6 7 7 7 6 6 5 5 5 6 6 5 5 5 4 4 3 2 1 1 1 2 4 5 7 9 10 11 12 13 13 14 15 16 17 18 19 20 21 22 23 23 23 24 24 25 24 23 22
3 5 7 8 10 12 13 15 17 18 18 15 13 11 10 11 11 8 5 3 2 1 2 3 4 4 5 5 5 5 6 6 6 6 6 6 6 6 7 6 6 5 5 5 4 4 4 4 4 3 3 2 2 1 1 1 2 4 5 6 8 9 10 12 12 13 14 15 16 17 18 18 19 21 22 22 22 22 23 24 23 23 22 21 20
4 6 7 8 10 11 13 15 17 18 17 15 13 12 11 12 11 8 5 4 3 1 1 2 3 4 5 5 5 5 5 6 6 6 6 6 6 6 6 6 5 5 4 4 4 4 3 3 3 2 2 1 1 0 1 2 3 4 5 6 8 9 10 13 14 14 15 16 17 17 18 19 20 21 22 22 22 22 22 22 22 21 20 20 19
4 6 8 9 11 12 13 15 17 17 17 16 14 12 13 13 10 8 6 5 3 2 2 2 2 3 5 5 5 5 5 5 6 6 5 6 6 6 6 6 5 4 4 4 4 4 4 3 3 3 2 2 2 2 3 4 5 5 6 7 9 10 11 13 15 15 15 17 18 18 18 18 20 21 21 21 21 21 21 20 21 21 20 19 19
4 6 8 10 12 14 15 17 17 17 17 16 14 14 14 12 10 8 6 6 4 3 2 2 2 3 5 5 5 5 5 5 6 6 5 5 6 6 6 6 6 5 4 4 4 4 4 4 4 4 5 5 5 5 5 6 7 7 8 9 10 11 12 13 15 15 16 17 18 18 18 18 20 20 20 19 19 20 20 20 21 20 20 19 19
5 8 10 11 13 16 17 17 17 17 17 15 15 16 15 12 9 8 7 6 5 4 3 3 3 3 5 5 6 6 5 5 6 6 6 6 5 5 5 5 6 5 5 4 4 4 4 5 5 5 5 6 6 6 6 7 8 8 9 9 10 11 12 13 15 16 17 17 17 17 17 17 19 18 18 18 19 20 20 20 20 20 20 19 19
8 11 12 12 14 16 17 18 18 17 16 15 16 16 14 11 10 9 8 7 6 5 4 4 3 3 4 5 6 6 6 5 6 6 7 6 6 6 5 5 5 5 5 4 4 4 4 4 4 5 5 6 6 6 7 7 8 9 10 10 11 12 13 13 15 16 17 16 16 17 16 16 17 18 18 18 19 21 21 20 20 20 20 19 19
10 11 11 11 13 16 17 18 18 18 17 16 16 16 13 11 10 10 9 7 7 6 5 5 4 4 4 5 6 7 6 5 6 7 7 7 7 6 5 5 5 5 5 4 4 4 4 4 4 5 6 6 7 7 8 9 9 10 11 11 12 12 12 13 14 15 15 15 15 15 16 16 17 18 18 19 19 20 20 20 19 19 19 18 18
10 10 9 10 12 15 16 17 18 18 17 17 17 15 12 11 11 10 9 8 7 7 6 6 5 5 5 5 6 7 6 5 6 7 8 7 7 6 5 5 5 5 6 5 5 5 4 4 5 5 6 6 7 8 8 9 10 10 11 11 12 11 12 13 13 13 13 15 14 14 16 16 17 18 18 18 18 19 18 17 18 18 18 18 17
7 8 8 8 10 13 15 16 18 18 18 17 16 14 12 12 11 11 10 8 8 8 8 7 6 6 6 6 6 6 6 6 6 7 8 8 7 6 5 5 5 5 5 5 5 5 5 4 4 4 5 5 6 7 8 9 9 10 11 11 11 11 12 13 13 12 13 15 15 14 15 16 17 17 18 17 17 17 17 16 17 17 17 17 16
6 7 7 8 11 14 15 17 18 18 17 17 15 14 13 12 12 11 10 9 9 9 9 8 7 7 7 6 6 6 6 5 5 7 7 7 6 6 5 5 4 4 4 4 4 4 4 4 4 4 4 5 6 7 8 9 10 10 11 11 11 12 13 13 13 13 14 14 15 15 15 16 16 16 17 16 16 17 17 16 17 16 16 17 16
8 8 8 9 12 14 15 18 18 17 17 17 15 14 13 13 12 12 11 10 10 10 9 8 7 7 7 7 7 7 6 5 5 6 7 6 5 5 4 3 2 2 3 3 3 3 3 4 4 4 4 5 6 7 8 9 10 10 11 11 11 12 12 13 13 14 14 14 15 15 15 16 15 15 16 16 16 16 17 16 16 16 15 15 15
9 9 8 10 12 13 15 16 16 16 16 16 15 14 13 13 13 12 11 10 10 10 9 8 8 8 8 8 8 7 6 5 5 6 6 4 4 3 2 1 1 1 2 2 2 3 3 3 4 4 4 5 5 6 7 8 9 10 11 11 11 11 12 12 12 13 14 14 14 15 15 15 15 15 16 16 16 16 17 17 17 16 15 15 16
8 9 9 10 11 12 14 14 14 15 15 16 15 14 14 14 13 12 11 11 11 11 10 9 9 10 9 9 8 7 6 5 5 5 5 4 3 2 1 0 0 0 1 1 1 2 2 3 4 4 5 5 5 6 7 8 9 10 11 11 11 11 11 12 12 13 14 13 14 15 15 15 14 15 16 16 16 16 17 17 17 17 17 17 17
9 10 10 10 11 12 13 13 14 14 15 15 15 14 14 14 14 13 12 12 12 12 10 10 11 11 10 10 9 8 6 5 5 5 4 3 1 1 1 1 1 1 1 1 2 2 2 3 4 5 6 6 7 7 7 8 9 9 10 11 11 11 11 11 12 12 13 13 13 14 14 14 14 15 15 16 16 16 17 17 16 17 17 17 18
10 11 11 10 10 12 12 12 13 13 14 14 15 15 15 14 14 13 13 13 13 12 11 11 12 12 11 10 9 8 6 6 5 5 4 2 1 2 2 2 1 1 2 2 2 2 3 4 5 6 7 7 7 7 7 7 8 8 8 9 9 9 10 10 10 10 11 11 12 13 13 14 14 15 15 16 16 16 17 17 17 17 17 17 18
12 12 12 11 10 11 11 11 12 13 13 14 14 14 14 13 13 13 13 13 13 12 11 12 13 12 12 11 9 8 6 6 5 4 3 2 2 2 2 2 2 2 2 2 2 3 4 5 5 5 6 6 6 6 6 6 7 7 7 8 8 8 8 8 8 9 10 11 12 13 13 14 15 16 16 16 16 17 17 18 18 18 18 18 18
13 14 13 12 11 11 11 11 12 13 14 14 14 13 13 12 13 13 13 13 13 13 13 13 13 13 12 11 10 8 7 6 5 4 3 2 3 3 3 2 2 2 2 3 3 4 5 6 5 4 4 4 5 5 5 6 6 6 6 6 6 6 7 8 8 8 10 11 12 13 14 15 16 17 17 18 18 18 19 19 19 20 19 20 20
14 14 14 13 12 12 12 12 13 14 14 13 13 12 12 13 13 13 13 13 13 14 14 14 14 13 12 11 10 8 7 6 5 4 3 3 4 4 4 3 3 3 3 3 4 5 5 5 5 4 4 3 4 4 5 5 5 5 5 5 6 6 7 7 8 9 10 12 13 14 15 16 17 19 19 20 20 20 20 20 20 20 21 21 20
13 15 15 14 13 13 13 14 14 14 14 12 12 12 12 12 13 13 13 14 14 15 15 15 14 13 13 11 10 8 7 6 6 5 4 4 5 5 4 4 4 4 4 4 5 5 5 4 4 4 4 3 3 4 4 4 4 5 5 5 6 6 7 8 8 9 11 13 14 15 16 18 19 20 21 21 22 22 22 22 21 21 21 21 20
14 16 16 15 13 14 14 15 16 15 13 12 12 12 12 11 12 13 14 15 15 16 15 14 14 13 12 11 9 8 7 7 6 5 5 6 7 7 6 5 5 5 4 4 5 4 3 3 3 2 2 2 2 3 3 3 4 5 5 6 7 8 8 9 10 11 13 14 16 17 18 20 21 22 23 23 23 23 23 23 23 23 22 22 21
17 16 16 15 14 15 16 16 17 15 13 12 13 12 11 12 13 14 14 15 15 15 15 14 14 13 12 11 9 8 8 7 6 6 6 7 8 8 7 5 5 5 4 4 4 3 3 3 2 1 1 2 2 3 3 4 5 6 7 8 9 10 10 11 12 13 14 16 17 19 20 21 23 23 24 24 24 25 25 25 24 24 23 22 22
18 17 16 15 15 17 17 17 17 15 13 12 12 12 12 13 15 15 14 15 15 14 14 14 13 13 12 10 9 8 8 7 6 7 7 8 8 8 7 6 5 5 5 4 3 3 3 2 1 0 1 2 3 4 5 6 7 8 9 11 11 12 12 13 14 15 16 18 19 20 22 23 24 25 25 25 26 26 26 26 25 24 24 23 22
18 18 17 16 17 18 18 18 17 16 14 12 13 14 14 13 14 15 15 15 14 14 14 14 13 13 12 10 9 9 8 7 7 8 8 8 8 8 7 6 6 6 5 4 4 3 3 3 2 0 1 3 4 5 7 8 9 10 11 12 13 14 15 15 16 17 18 20 21 22 23 24 25 26 26 26 27 27 27 27 26 26 25 24 24
19 19 19 18 18 19 19 19 18 17 14 13 13 14 14 13 14 14 15 15 15 15 14 14 14 13 11 10 10 9 7 7 8 9 10 9 8 8 7 7 7 7 6 5 4 4 3 2 1 1 2 4 6 7 8 10 11 12 13 14 15 16 17 18 18 19 20 21 22 23 24 24 25 26 27 27 27 27 28 27 27 27 26 26 26
20 21 21 21 20 20 21 20 19 17 14 13 13 14 15 14 14 14 15 16 16 15 14 14 14 12 11 11 10 9 8 9 10 10 10 9 8 8 7 7 7 7 6 6 5 4 3 2 2 3 4 6 8 9 10 11 13 14 15 16 17 18 19 19 20 20 21 22 22 23 24 25 25 26 27 27 28 28 28 27 27 27 27 27 27
21 22 23 23 23 22 21 20 19 16 14 15 15 16 15 14 15 15 16 16 16 15 15 15 14 12 11 11 10 9 10 11 11 11 10 9 8 8 7 7 7 7 7 6 4 4 3 3 3 4 6 7 9 11 12 12 14 15 16 17 18 19 19 20 21 21 22 22 23 24 24 25 26 26 27 27 27 27 27 27 27 27 27 27 27
22 24 25 25 24 23 22 20 19 17 18 18 16 16 15 14 15 15 15 16 16 16 16 16 15 13 11 11 12 11 11 11 11 10 9 8 7 7 7 8 8 7 6 5 5 4 3 4 5 5 7 8 10 11 12 13 15 16 17 18 18 19 20 20 21 21 22 23 24 24 25 25 25 26 26 26 26 27 27 27 28 28 28 28 28
24 25 27 26 23 23 23 21 19 18 19 17 14 15 15 14 14 14 15 16 17 18 18 17 16 14 12 12 13 12 11 11 11 10 9 8 8 7 8 8 8 7 6 6 5 5 5 5 6 7 8 9 10 12 13 14 16 17 17 18 19 19 20 21 21 22 23 23 24 25 25 25 25 25 25 25 26 26 27 27 28 28 28 29 29
25 26 27 26 24 24 24 22 20 19 19 17 15 15 15 15 15 15 16 17 19 19 19 17 15 15 13 12 12 12 11 11 10 10 9 8 8 8 8 9 8 7 7 6 6 6 6 6 7 8 9 10 11 13 14 15 16 17 17 18 18 19 19 20 22 22 23 24 24 25 25 25 25 25 25 25 26 26 27 27 27 28 28 29 29
27 26 27 27 26 27 27 23 20 20 19 17 15 15 16 16 17 16 17 19 20 19 19 18 16 15 13 12 12 11 11 11 11 10 9 8 8 9 8 8 7 7 7 6 6 7 7 7 8 9 10 11 13 14 15 16 17 17 17 18 18 19 19 20 21 22 23 24 24 24 24 24 25 25 25 26 26 27 27 27 28 28 28 29 30
27 28 28 27 27 29 28 23 19 18 18 17 14 14 16 18 19 19 19 20 19 19 18 17 15 13 11 12 12 11 11 11 11 11 9 9 9 9 8 7 7 7 7 7 7 7 7 8 9 10 12 13 14 15 15 15 16 16 17 17 17 18 19 20 21 22 23 23 23 23 23 24 25 25 26 26 26 27 27 27 28 28 29 29 30
27 29 27 24 26 28 27 24 19 16 16 17 17 16 17 19 19 19 18 19 18 18 17 15 13 12 12 13 12 12 11 11 11 10 10 10 9 8 8 8 8 8 8 7 7 7 8 9 10 12 13 15 15 16 15 15 15 15 16 16 15 17 18 20 21 21 21 22 22 22 23 24 24 25 26 26 27 27 27 28 28 29 29 29 29
27 27 24 22 25 26 27 25 20 16 14 15 18 18 19 20 19 18 18 17 17 15 12 12 14 14 14 14 12 12 11 11 11 10 9 9 9 9 8 8 8 8 7 7 8 9 10 11 12 13 14 15 15 15 15 15 15 15 16 16 15 16 18 19 20 20 21 21 21 22 23 23 24 25 25 26 27 28 28 29 29 29 29 28 28
25 24 21 23 25 25 26 22 15 14 15 15 17 17 17 17 17 18 18 15 14 12 8 9 13 14 13 13 12 12 12 11 11 10 10 10 9 9 8 8 8 7 8 8 9 10 11 12 13 14 14 14 15 15 15 15 15 15 16 16 16 17 18 19 19 20 20 21 22 22 23 24 24 25 25 26 27 28 28 29 29 28 28 28 28
23 21 19 22 24 23 24 19 13 13 14 15 16 16 14 14 15 17 16 14 14 12 9 10 12 12 11 11 12 13 12 12 11 10 10 10 10 9 9 8 8 8 8 9 10 12 12 13 13 13 13 13 14 14 14 14 14 15 15 16 16 17 18 18 19 20 21 21 22 22 23 24 24 25 25 26 27 28 28 27 27 27 27 28 28
22 19 17 21 23 21 21 20 16 14 13 14 16 14 13 13 15 15 14 13 13 12 11 11 12 12 11 12 13 13 13 12 11 10 11 10 10 10 9 9 8 9 9 10 12 13 13 13 13 12 12 12 12 12 12 13 13 14 14 15 16 16 17 18 19 20 21 22 22 23 23 24 24 25 26 27 27 27 27 27 26 26 27 27 28
22 19 17 20 21 21 21 20 17 14 12 13 13 13 13 14 14 13 13 13 13 13 12 12 13 13 12 12 13 14 14 12 11 10 11 11 10 10 10 9 9 10 11 12 13 13 13 12 12 11 11 11 11 11 11 11 12 13 14 15 15 16 17 18 19 20 20 21 22 23 24 25 25 26 27 27 27 26 25 25 25 26 27 27 28
22 20 18 20 21 21 20 20 19 15 13 12 12 13 14 14 14 14 14 13 13 14 14 14 14 13 12 12 13 14 14 13 12 11 11 11 11 11 11 11 11 11 12 13 14 13 12 11 10 10 9 9 9 10 10 11 12 13 14 14 15 16 17 18 18 19 19 20 21 22 23 24 25 25 25 24 24 23 23 23 24 25 26 27 28
Wind_Direction
207 190 176 165 148 143 136 127 116 102 91 75 62 50 44 36 30 27 29 33 32 28 26 24 23 25 26 28 27 26 27 25 24 24 26 30 34 36 38 41 47 59 74 87 95 99 100 100 103 106 109 116 119 120 121 116 109 104 102 99 94 90 86 82 79 77 77 76 74 70 65 60 55 49 42 34 31 31 31 27 24 20 19 21 15
212 197 183 174 159 153 152 142 131 122 106 78 59 44 36 28 23 23 25 29 31 28 25 24 21 21 23 24 24 24 25 25 25 26 25 27 34 36 37 39 44 57 72 86 95 100 103 103 105 108 112 118 121 122 121 113 109 106 103 98 93 88 85 81 78 76 74 72 69 63 57 52 46 41 36 27 22 20 19 16 14 12 12 11 7
209 202 189 182 175 166 165 159 148 145 135 92 54 37 28 17 14 18 21 26 28 27 25 23 19 18 19 20 20 21 23 25 26 26 25 25 32 38 38 37 42 54 69 83 94 103 105 105 107 110 115 120 121 122 119 113 111 108 103 97 93 89 86 82 78 73 68 65 62 56 51 46 37 28 23 17 11 8 7 6 4 2 3 0 358
203 204 197 192 188 180 177 175 167 163 164 146 53 26 18 6 5 10 17 23 25 26 24 22 18 14 15 16 17 18 20 24 26 26 24 23 29 36 37 36 41 50 65 82 95 104 106 106 109 113 117 120 122 122 117 114 112 108 104 98 95 90 85 81 77 71 65 61 56 49 44 38 25 16 10 5 0 359 359 357 356 354 353 351 351
203 203 201 201 198 193 191 190 183 177 180 191 228 352 358 350 353 2 13 20 22 24 22 20 16 11 11 11 12 14 19 23 27 27 23 22 26 32 34 33 39 50 65 83 96 103 106 108 110 114 118 121 123 121 118 116 114 110 106 100 96 89 82 75 69 63 57 54 47 38 32 24 11 4 0 357 354 353 352 351 350 350 349 348 347
204 204 203 207 208 205 203 203 196 189 193 206 231 280 322 328 338 351 9 19 21 24 21 19 15 9 7 7 8 11 16 21 26 27 23 21 23 27 28 29 37 52 67 86 98 103 106 109 112 115 120 124 124 121 120 119 117 114 108 102 95 86 75 60 52 46 40 36 30 25 19 12 3 356 354 353 350 348 348 348 348 347 347 346 345
204 205 206 209 214 215 213 214 208 201 203 214 233 259 292 310 320 334 1 17 21 24 20 17 14 6 3 3 4 9 14 18 24 28 24 21 22 23 22 24 35 52 69 87 98 104 106 111 114 118 121 124 124 124 124 123 121 117 110 103 94 81 59 41 35 24 16 15 18 17 8 2 357 351 350 348 347 346 344 345 345 344 344 343 342
207 207 209 211 216 219 220 221 219 215 214 222 235 253 279 294 303 316 344 13 19 22 19 16 13 4 1 1 0 6 11 14 22 26 25 21 22 21 19 22 33 50 68 83 96 103 107 112 115 119 122 125 126 128 129 128 127 120 115 104 90 64 34 28 23 10 6 8 11 10 1 355 351 347 346 344 343 342 341 341 341 341 341 340 339
215 212 214 215 217 221 224 225 226 224 224 229 237 251 270 283 290 301 325 4 16 20 18 14 10 2 359 358 356 2 7 11 19 26 26 24 24 22 20 24 33 46 63 79 90 98 105 111 116 119 121 125 128 131 133 134 130 125 119 106 74 29 16 12 6 360 2 5 5 3 357 351 345 343 342 340 339 338 338 338 337 337 337 337 336
211 217 221 221 220 223 226 229 230 230 230 233 236 247 262 274 280 286 302 347 8 17 15 12 8 0 357 354 350 356 3 7 15 25 27 27 27 25 23 27 34 42 57 73 85 94 101 108 114 118 122 127 131 135 138 138 135 130 119 72 13 5 360 356 352 353 358 358 358 355 350 347 341 339 338 337 337 336 335 335 334 334 333 334 334
201 218 225 226 225 226 229 232 234 234 234 234 236 242 254 265 271 273 280 317 350 15 11 8 5 359 355 347 345 350 357 2 11 23 28 31 31 30 29 32 35 40 52 65 80 90 97 106 113 119 124 129 135 141 143 144 137 125 15 351 351 351 347 345 345 348 351 350 351 348 342 340 338 337 335 334 333 332 332 331 330 330 331 334 335
201 221 227 230 229 231 233 235 237 237 236 234 234 238 246 257 263 265 264 280 308 9 7 5 3 355 350 340 337 342 350 358 6 18 27 32 35 34 34 36 37 37 46 58 73 86 93 100 109 117 124 129 137 145 153 153 140 342 337 338 339 340 339 340 341 344 345 343 342 339 335 335 334 334 333 331 331 330 329 329 329 331 333 335 336
225 232 234 231 231 234 236 238 240 239 238 235 232 234 241 250 257 259 256 261 272 338 360 1 358 347 341 333 328 334 344 352 1 11 21 29 35 38 38 39 40 38 41 50 65 80 89 94 101 109 117 127 137 148 170 229 289 313 324 326 329 331 333 334 336 337 337 335 333 332 330 330 331 331 330 329 329 329 329 329 331 334 336 337 340
276 257 251 239 233 235 236 238 241 241 240 235 231 231 235 243 251 254 250 252 252 274 351 352 351 337 330 325 319 326 338 347 356 4 14 23 29 34 38 41 42 41 39 41 51 66 80 89 95 103 114 126 140 159 222 269 289 300 309 314 319 323 326 327 329 330 329 328 327 328 327 327 329 329 328 328 329 329 330 333 336 339 340 341 343
295 278 269 253 240 236 233 236 237 239 238 233 230 228 231 238 244 247 242 242 240 240 312 329 334 327 321 316 312 317 331 342 351 357 6 15 22 26 32 37 41 42 38 33 34 42 52 66 74 84 97 108 150 253 281 290 296 302 306 312 316 320 324 323 325 326 325 326 325 326 326 325 327 328 327 328 330 332 334 337 342 343 343 344 344
285 275 271 259 249 241 233 232 232 233 232 228 226 224 228 232 236 238 233 233 232 229 267 299 316 316 313 310 304 309 324 334 343 350 358 9 16 17 20 26 31 34 33 29 26 26 25 23 21 17 11 356 336 321 314 313 314 317 317 317 320 322 325 324 322 322 324 325 324 324 325 324 326 327 327 329 333 336 338 341 344 343 343 343 341
274 266 262 255 249 243 233 229 227 226 225 222 221 222 226 228 229 231 226 226 225 226 255 281 300 309 308 305 300 301 315 327 337 342 347 1 10 10 11 16 19 21 19 17 18 17 14 7 2 358 357 350 343 335 328 327 324 324 324 322 323 324 325 323 319 319 321 322 322 323 323 323 325 327 328 332 338 339 340 344 345 341 340 340 340
264 254 250 246 244 242 235 227 222 220 220 217 217 221 224 224 225 227 224 222 221 223 248 271 286 302 304 302 297 297 308 320 331 334 339 349 359 2 2 7 10 12 9 6 5 5 3 358 353 348 347 343 338 334 328 325 322 322 321 322 324 324 324 321 319 320 320 322 322 320 321 324 326 328 331 336 341 340 341 345 345 340 339 339 340
252 246 246 245 244 241 233 223 216 213 213 212 215 221 222 221 224 227 225 222 219 219 239 260 269 280 291 294 291 290 298 311 322 330 334 340 349 351 350 355 358 358 356 354 350 349 349 342 339 334 328 328 325 324 322 319 320 321 321 323 324 324 324 322 323 323 322 323 321 318 324 329 328 330 334 340 343 340 340 344 343 341 343 344 343
258 252 254 253 249 244 233 222 213 206 205 208 214 218 218 218 222 226 226 225 222 222 234 249 255 260 270 279 282 283 291 307 320 328 332 335 341 342 340 343 344 344 338 335 333 329 330 328 328 325 321 321 322 325 326 327 327 326 326 326 327 327 326 326 325 325 324 320 319 323 331 333 332 335 338 343 344 339 339 343 344 345 347 347 347
269 263 265 260 254 247 233 220 211 204 202 206 213 215 215 216 220 224 225 223 224 228 234 242 250 256 261 268 275 280 288 305 320 326 329 331 331 332 330 332 334 333 328 326 325 324 327 332 332 328 325 323 325 329 331 333 333 331 330 330 330 330 329 329 328 329 325 317 322 331 334 336 339 341 341 343 342 336 339 344 344 346 348 349 349
265 263 263 255 250 243 227 215 211 205 202 206 211 212 213 216 219 223 223 221 224 229 234 241 246 253 259 263 269 277 286 300 318 325 326 327 326 324 320 319 324 322 323 323 320 323 329 337 339 333 328 327 327 329 333 334 333 332 330 332 333 330 328 329 329 328 320 316 327 337 336 339 342 342 339 341 341 337 340 343 343 345 346 348 349
231 238 239 239 241 234 218 211 211 206 205 208 210 210 213 216 218 222 222 221 225 229 235 242 247 254 259 263 267 272 280 295 314 321 321 324 323 319 315 315 321 322 323 323 320 326 333 338 336 331 330 331 331 331 334 334 332 331 330 333 332 328 327 325 326 323 316 321 333 337 338 341 343 340 336 340 344 340 342 343 341 343 343 343 345
211 218 220 227 233 229 214 210 213 209 208 210 211 211 214 217 219 221 222 223 228 231 237 243 249 258 262 265 264 266 274 291 309 316 316 318 320 312 309 315 322 328 324 326 330 328 331 336 331 333 336 332 331 328 330 330 329 328 329 332 329 326 324 322 324 319 318 330 337 338 340 342 343 341 337 343 348 344 344 343 342 343 343 340 339
214 217 217 224 228 224 214 212 216 214 212 213 213 213 214 218 220 222 224 225 230 232 236 242 249 254 258 261 261 263 272 288 306 314 313 314 316 305 300 320 333 342 335 341 340 327 330 334 329 334 335 324 322 320 322 323 323 326 328 329 328 327 324 323 324 321 324 336 339 339 342 344 346 344 343 348 351 347 347 346 343 343 342 339 336
224 217 218 222 223 219 213 213 216 217 217 216 215 214 216 220 221 223 226 227 230 232 232 238 246 251 253 257 258 260 266 283 301 307 306 309 310 290 220 147 114 47 317 339 328 317 324 327 325 330 329 322 321 322 323 323 323 328 330 330 331 330 328 327 328 327 328 335 342 343 344 347 349 348 347 351 352 350 350 349 345 342 340 338 335
223 215 218 217 215 214 211 210 213 217 219 218 216 216 218 221 223 224 227 228 229 230 230 236 245 250 253 255 256 256 261 278 293 299 299 301 289 221 173 155 161 225 254 304 314 309 313 314 321 324 323 322 322 326 326 325 328 332 332 332 334 333 332 331 330 330 329 338 347 346 347 349 350 350 350 351 351 350 349 348 345 341 338 336 335
221 219 222 217 211 209 208 208 212 218 219 218 218 218 220 223 226 227 228 229 230 231 231 237 244 248 251 253 255 257 261 276 289 296 296 283 218 197 175 155 188 248 269 299 312 302 304 310 319 323 323 320 320 326 331 334 339 343 340 339 340 338 338 334 334 332 333 348 353 346 349 350 348 349 348 347 347 346 344 343 343 340 338 335 332
222 223 224 221 214 209 209 210 214 219 219 220 221 221 223 226 229 230 229 228 229 230 231 236 242 245 249 251 253 255 259 274 284 287 289 253 202 203 188 180 216 244 274 296 306 305 306 313 319 323 323 321 325 335 347 354 354 355 349 346 347 344 340 335 337 334 334 351 354 346 348 347 345 345 343 342 341 340 339 339 339 337 336 333 330
221 223 223 222 218 216 218 218 218 220 220 221 224 224 225 227 229 230 229 229 230 230 231 235 240 243 246 248 250 250 255 267 272 268 267 234 210 219 210 211 228 240 268 292 304 310 314 319 325 331 335 337 343 353 3 4 359 359 356 352 350 345 338 334 337 334 332 346 348 343 345 343 340 339 338 337 336 335 334 333 333 331 331 329 328
222 223 224 224 224 226 227 226 223 222 222 223 224 224 223 225 227 228 229 230 231 230 232 234 237 241 243 244 245 244 250 257 259 256 247 234 228 234 235 238 246 251 267 288 303 313 321 327 334 335 346 353 352 2 8 4 2 7 2 353 346 341 337 334 335 334 331 338 341 339 339 337 335 335 334 334 333 333 332 330 330 328 327 326 326
223 224 225 228 232 234 231 228 226 226 226 223 222 221 220 221 223 224 227 229 230 229 230 233 235 238 240 240 241 243 249 250 249 250 244 239 237 241 247 247 248 256 269 292 306 315 322 329 331 327 340 356 359 11 9 3 4 5 357 345 338 333 331 330 331 331 330 332 334 334 334 333 332 332 332 331 331 330 329 329 329 329 327 326 324
223 224 225 228 233 236 233 229 229 230 227 219 216 215 213 215 218 221 226 228 229 228 228 231 234 236 239 240 241 244 248 247 245 250 253 245 239 244 249 247 246 256 270 291 302 308 318 321 321 328 360 7 9 20 8 359 354 347 342 336 331 327 326 326 327 328 327 328 330 329 330 329 329 328 328 328 327 327 327 328 329 329 328 326 325
224 224 226 228 231 235 235 233 233 233 225 217 211 208 209 212 215 218 224 227 227 228 228 231 234 235 238 237 238 241 241 243 247 253 257 245 238 242 245 246 251 259 271 286 295 302 311 310 316 24 45 22 17 13 358 350 342 335 332 328 325 324 323 323 323 324 324 325 325 325 326 325 325 325 325 325 325 325 326 328 329 329 329 328 328
226 224 227 229 230 233 236 236 236 232 223 216 209 208 213 214 217 219 222 226 227 226 227 228 231 232 233 232 231 233 233 236 247 252 250 240 235 237 239 245 253 259 268 275 280 285 284 271 248 39 25 10 1 351 343 339 333 328 324 320 319 319 320 320 321 322 322 323 322 321 322 321 322 323 323 324 325 326 327 327 328 329 329 329 329
226 225 230 233 234 234 235 237 237 233 222 215 214 215 217 217 222 226 226 228 228 226 226 225 228 230 228 227 228 228 229 236 247 249 243 235 232 235 239 243 249 256 259 254 254 256 247 231 214 232 343 344 335 330 331 327 323 319 315 314 315 317 319 321 322 322 321 320 319 318 318 319 320 322 323 324 324 325 325 326 328 329 329 330 330
226 228 234 239 240 238 236 236 237 235 225 219 222 223 222 222 226 232 235 233 230 227 225 225 227 230 228 228 228 224 231 243 248 244 237 232 232 236 239 240 247 253 245 234 236 239 229 225 233 291 320 325 320 320 321 318 315 313 313 315 317 318 319 321 320 319 319 318 317 317 317 318 320 321 322 322 322 323 324 326 327 328 329 330 330
226 231 238 242 243 239 236 235 235 235 230 224 226 225 226 231 233 236 241 239 235 232 230 229 229 229 230 230 226 223 234 243 242 237 232 232 235 236 237 242 248 244 232 227 229 231 234 250 275 300 314 319 313 313 314 312 312 312 314 316 316 317 317 318 318 317 317 317 316 316 316 318 319 321 321 321 322 324 325 326 326 327 328 329 328
227 233 239 244 243 240 238 236 236 235 232 228 226 228 230 237 239 236 241 242 239 237 234 232 229 227 228 226 223 226 233 235 234 231 230 231 234 234 238 243 240 229 225 228 231 233 248 267 285 300 308 311 307 308 310 310 310 312 313 314 315 315 316 316 317 317 316 316 316 316 317 319 320 320 320 321 323 324 325 326 327 328 329 329 328
228 233 238 243 244 244 242 240 240 237 234 229 227 236 239 238 240 237 239 241 239 238 236 233 231 228 224 217 218 225 227 225 225 223 223 224 227 230 234 235 227 222 227 234 239 248 262 275 285 295 299 301 303 305 307 309 310 312 313 313 314 315 315 315 315 315 316 316 317 318 319 319 319 319 320 321 323 324 325 327 329 330 330 329 329
233 236 238 241 241 243 245 243 243 242 238 231 224 235 242 239 239 236 235 237 237 237 235 231 225 219 214 211 216 222 220 218 215 215 215 215 221 228 229 227 224 223 227 234 246 257 267 277 284 289 294 298 301 302 304 307 308 310 312 313 315 315 315 314 315 316 317 318 319 319 319 318 319 319 320 322 323 324 326 328 329 329 329 329 329
237 238 240 242 240 241 246 245 242 241 237 232 225 230 236 237 237 236 235 235 235 237 238 233 221 212 208 209 216 217 217 217 214 213 214 215 224 231 227 224 224 225 228 237 249 258 267 277 285 290 295 299 301 303 304 306 307 308 311 313 314 314 314 315 316 318 319 320 319 319 318 319 320 321 322 323 324 325 326 327 328 328 328 328 328
238 239 240 242 242 244 247 243 239 239 235 230 229 232 235 238 238 237 237 236 235 237 240 234 220 210 202 206 214 212 214 216 214 215 216 221 230 232 227 223 223 225 231 242 250 262 273 280 287 292 296 299 301 303 305 306 309 310 312 314 313 313 315 316 318 320 319 319 318 317 318 319 321 322 323 324 325 325 326 327 328 328 328 328 327
239 240 241 243 245 246 247 245 239 236 233 228 228 234 237 237 235 234 236 238 236 236 238 231 219 208 198 208 216 211 208 209 210 215 217 224 231 231 229 226 225 227 233 244 254 265 275 281 288 294 298 301 302 304 305 307 310 313 316 318 317 316 317 319 319 318 317 316 316 317 319 320 321 323 324 325 326 326 327 328 329 329 328 327 326
241 243 244 248 249 248 248 247 243 231 222 220 221 228 230 228 230 233 235 234 233 232 232 229 223 214 206 211 215 209 205 205 207 213 218 224 227 225 224 223 223 228 235 244 253 262 272 280 289 296 300 302 303 304 306 308 311 313 316 319 319 317 317 319 317 315 315 315 317 318 319 321 322 324 325 326 327 328 328 329 329 329 329 328 328
242 245 247 250 249 250 248 244 240 227 214 216 221 222 222 224 228 232 231 227 229 229 219 216 219 216 213 210 208 207 206 206 209 215 221 221 220 217 216 218 220 226 234 243 254 265 276 284 291 297 300 302 303 305 308 311 312 313 315 317 317 316 315 315 314 315 316 316 318 319 320 322 323 325 326 327 328 329 329 330 330 330 331 331 331
240 243 246 249 248 252 252 246 233 215 212 219 221 220 221 224 228 232 234 233 237 238 220 208 211 212 214 207 203 207 207 210 215 219 221 216 213 213 212 215 219 227 240 253 266 276 282 288 293 297 299 301 304 307 309 310 312 313 315 316 315 313 312 313 314 315 316 318 320 321 322 323 325 327 327 328 329 330 331 331 332 333 333 334 335
236 239 243 249 249 251 255 253 235 219 220 218 215 218 224 227 229 233 239 242 241 238 223 210 210 214 213 205 204 208 209 214 219 222 220 215 212 212 213 218 227 240 255 270 279 283 287 291 295 298 300 302 303 305 306 308 311 313 314 313 312 311 311 312 314 316 319 321 321 322 323 325 326 327 328 330 331 331 332 333 335 336 337 338 338
234 236 239 250 253 251 254 253 243 234 225 212 212 221 228 230 232 234 237 241 241 234 219 211 215 216 210 205 206 208 212 217 221 223 220 217 217 217 221 230 241 256 268 279 284 286 290 294 298 300 300 299 299 300 302 306 309 310 310 309 309 310 312 314 317 320 322 322 323 324 325 325 325 327 329 331 331 332 334 337 338 339 340 339 340
233 233 234 246 253 253 254 252 246 241 224 214 220 228 232 232 231 231 232 235 237 231 221 216 216 215 210 209 209 210 215 218 222 225 222 223 225 227 234 244 255 267 276 284 287 289 293 297 299 297 295 293 293 298 302 305 306 306 307 308 310 312 315 318 321 322 322 323 324 324 325 326 328 329 330 331 333 335 337 339 341 341 340 341 342
233 232 232 240 248 251 254 251 247 243 229 224 231 233 234 231 225 228 231 232 230 221 217 217 217 216 214 214 214 215 217 219 224 227 227 231 233 237 245 253 264 274 281 286 288 291 294 295 294 290 290 292 296 301 304 305 305 306 307 310 313 316 319 320 320 321 323 323 323 323 325 327 329 329 330 332 335 337 339 342 342 342 342 343 343